Simultaneous Nadir Overpasses (SNOs) Predictions

Prediction of SNOs between GOES-16 and AQUA Satellite Orbit:

Table of predicted SNOs for the next 14.0 days since TLE Epoch: 7/2/2022
Index Date Time (GOES-16) GOES-16 Lat,Lon AQUA Lat,Lon Distance(km) Time Diff (sec)
1 07/02/2022 06:41:27 0.01, -75.20 0.02, -75.29 9.93 80
2 07/04/2022 06:26:12 0.02, -75.21 -0.64, -72.23 340.00 80
3 07/04/2022 18:47:29 -0.03, -75.22 -0.46, -77.39 246.07 80
4 07/06/2022 18:34:54 -0.02, -75.24 0.20, -74.33 104.39 80
5 07/07/2022 06:58:43 0.02, -75.25 0.91, -79.46 478.61 80
6 07/08/2022 18:22:19 -0.01, -75.27 0.81, -71.26 454.84 80
7 07/09/2022 06:46:08 0.01, -75.27 0.23, -76.40 128.20 80
8 07/11/2022 06:30:53 -0.01, -75.29 -0.45, -73.34 222.07 80
9 07/11/2022 18:52:11 0.01, -75.30 -0.65, -78.51 364.03 80
10 07/13/2022 18:39:35 0.01, -75.33 -0.01, -75.44 12.92 80
11 07/15/2022 18:29:39 0.01, -75.36 0.63, -72.37 338.96 80
